QPF
0.00 0.00 0.00 0.01 0.02 0.03 0.04 0.03 0.02 0.02 0.02 0.01 0.01 0.00 0.00 0.01 0.02 0.05 0.05 0.07 0.09 0.11 0.12 0.12 0.13 0.12 0.11 0.09 0.08 0.08 0.09 0.09 0.09 0.08 0.07 0.07 0.06 0.07 0.07 0.08 0.08 0.09 0.08 0.08 0.07 0.06 0.04 0.05 0.05
0.00 0.00 0.00 0.01 0.02 0.03 0.03 0.02 0.01 0.01 0.01 0.00 0.00 0.00 0.00 0.00 0.01 0.02 0.03 0.07 0.11 0.11 0.09 0.09 0.10 0.10 0.10 0.09 0.10 0.09 0.10 0.09 0.09 0.08 0.07 0.05 0.05 0.07 0.08 0.08 0.08 0.09 0.08 0.07 0.06 0.06 0.05 0.05 0.05
0.00 0.00 0.01 0.01 0.02 0.03 0.03 0.02 0.01 0.00 0.00 0.00 0.00 0.00 0.01 0.01 0.01 0.02 0.03 0.06 0.12 0.13 0.10 0.09 0.09 0.09 0.08 0.08 0.09 0.10 0.09 0.08 0.08 0.07 0.05 0.03 0.04 0.06 0.08 0.08 0.06 0.06 0.06 0.05 0.05 0.05 0.04 0.04 0.04
0.00 0.00 0.01 0.01 0.02 0.03 0.02 0.01 0.01 0.01 0.00 0.00 0.01 0.02 0.02 0.03 0.04 0.03 0.03 0.05 0.09 0.12 0.13 0.12 0.10 0.09 0.08 0.07 0.07 0.09 0.09 0.09 0.08 0.08 0.06 0.05 0.05 0.06 0.07 0.07 0.06 0.05 0.06 0.06 0.05 0.05 0.03 0.03 0.04
0.00 0.01 0.01 0.01 0.02 0.02 0.01 0.00 0.00 0.00 0.00 0.01 0.01 0.03 0.04 0.04 0.04 0.03 0.04 0.05 0.05 0.07 0.09 0.09 0.10 0.08 0.08 0.08 0.09 0.08 0.10 0.11 0.10 0.09 0.08 0.08 0.09 0.10 0.08 0.07 0.06 0.07 0.06 0.07 0.08 0.06 0.04 0.04 0.04
0.00 0.01 0.01 0.01 0.01 0.01 0.01 0.00 0.00 0.00 0.00 0.00 0.00 0.01 0.04 0.06 0.06 0.07 0.05 0.04 0.04 0.05 0.08 0.08 0.08 0.07 0.07 0.08 0.08 0.07 0.07 0.08 0.07 0.06 0.08 0.09 0.09 0.08 0.07 0.07 0.07 0.09 0.10 0.10 0.10 0.09 0.08 0.08 0.07
0.01 0.01 0.01 0.00 0.00 0.01 0.01 0.00 0.00 0.00 0.00 0.00 0.00 0.01 0.04 0.09 0.11 0.12 0.10 0.07 0.07 0.07 0.07 0.07 0.06 0.05 0.05 0.06 0.05 0.05 0.05 0.05 0.06 0.07 0.07 0.09 0.10 0.08 0.07 0.07 0.07 0.08 0.09 0.10 0.10 0.11 0.10 0.09 0.10
0.01 0.01 0.00 0.00 0.01 0.01 0.01 0.00 0.00 0.01 0.01 0.01 0.01 0.03 0.08 0.12 0.11 0.09 0.06 0.08 0.08 0.07 0.06 0.06 0.07 0.05 0.04 0.05 0.06 0.04 0.05 0.06 0.07 0.08 0.10 0.13 0.12 0.08 0.07 0.08 0.08 0.09 0.09 0.11 0.10 0.10 0.10 0.10 0.08
0.01 0.01 0.01 0.00 0.01 0.01 0.01 0.00 0.00 0.01 0.01 0.02 0.05 0.06 0.08 0.07 0.05 0.02 0.03 0.05 0.05 0.05 0.06 0.08 0.09 0.07 0.05 0.06 0.04 0.04 0.04 0.05 0.06 0.07 0.15 0.18 0.11 0.09 0.08 0.08 0.10 0.09 0.10 0.12 0.12 0.10 0.08 0.07 0.07
0.01 0.01 0.00 0.00 0.00 0.01 0.00 0.00 0.00 0.00 0.00 0.01 0.03 0.05 0.05 0.04 0.03 0.03 0.04 0.05 0.06 0.07 0.08 0.08 0.06 0.05 0.05 0.04 0.03 0.04 0.04 0.05 0.06 0.07 0.08 0.07 0.06 0.06 0.06 0.08 0.11 0.11 0.12 0.12 0.11 0.11 0.09 0.09 0.08
0.01 0.01 0.00 0.00 0.00 0.00 0.01 0.00 0.00 0.00 0.01 0.01 0.01 0.02 0.02 0.02 0.02 0.02 0.03 0.04 0.05 0.07 0.09 0.06 0.04 0.04 0.03 0.03 0.03 0.03 0.04 0.04 0.05 0.05 0.06 0.06 0.06 0.05 0.06 0.09 0.10 0.12 0.14 0.14 0.16 0.16 0.14 0.13 0.12
0.00 0.00 0.00 0.00 0.00 0.00 0.00 0.00 0.00 0.00 0.01 0.01 0.00 0.01 0.01 0.01 0.01 0.02 0.02 0.02 0.02 0.04 0.06 0.06 0.04 0.03 0.03 0.04 0.03 0.02 0.02 0.03 0.03 0.02 0.03 0.05 0.06 0.06 0.06 0.07 0.08 0.10 0.12 0.15 0.16 0.14 0.12 0.12 0.12
0.00 0.00 0.00 0.00 0.00 0.00 0.00 0.00 0.00 0.01 0.00 0.00 0.00 0.01 0.00 0.00 0.01 0.01 0.02 0.01 0.01 0.01 0.03 0.04 0.03 0.02 0.03 0.03 0.03 0.02 0.03 0.03 0.03 0.03 0.03 0.04 0.05 0.05 0.04 0.05 0.06 0.07 0.09 0.12 0.13 0.11 0.10 0.11 0.10
0.00 0.00 0.00 0.00 0.00 0.00 0.00 0.00 0.00 0.01 0.00 0.00 0.00 0.01 0.00 0.00 0.01 0.01 0.01 0.01 0.01 0.01 0.01 0.01 0.01 0.02 0.03 0.02 0.01 0.02 0.02 0.02 0.03 0.03 0.03 0.04 0.03 0.04 0.04 0.03 0.05 0.06 0.07 0.09 0.10 0.10 0.11 0.11 0.11
0.00 0.00 0.00 0.00 0.00 0.01 0.00 0.01 0.00 0.00 0.00 0.00 0.00 0.00 0.00 0.00 0.01 0.01 0.01 0.01 0.01 0.01 0.01 0.01 0.01 0.02 0.02 0.02 0.01 0.01 0.01 0.01 0.02 0.03 0.03 0.03 0.03 0.04 0.04 0.03 0.04 0.05 0.06 0.08 0.10 0.12 0.11 0.10 0.10
0.00 0.00 0.00 0.00 0.00 0.00 0.01 0.02 0.01 0.00 0.00 0.00 0.00 0.00 0.00 0.00 0.00 0.00 0.00 0.01 0.01 0.01 0.01 0.01 0.01 0.02 0.03 0.03 0.02 0.01 0.01 0.01 0.02 0.02 0.03 0.03 0.03 0.04 0.05 0.05 0.05 0.05 0.07 0.09 0.11 0.12 0.10 0.10 0.09
0.00 0.00 0.00 0.00 0.00 0.00 0.01 0.02 0.00 0.00 0.00 0.00 0.00 0.00 0.00 0.00 0.00 0.00 0.00 0.00 0.00 0.01 0.01 0.01 0.01 0.01 0.02 0.03 0.03 0.02 0.01 0.01 0.02 0.03 0.03 0.03 0.03 0.03 0.05 0.06 0.07 0.08 0.09 0.10 0.11 0.11 0.10 0.10 0.09
0.01 0.00 0.00 0.00 0.00 0.00 0.00 0.01 0.00 0.00 0.00 0.00 0.00 0.00 0.00 0.00 0.00 0.00 0.00 0.00 0.01 0.01 0.02 0.01 0.01 0.01 0.02 0.02 0.02 0.02 0.02 0.02 0.02 0.02 0.03 0.03 0.04 0.04 0.04 0.05 0.05 0.05 0.07 0.09 0.09 0.08 0.08 0.07 0.07
0.00 0.00 0.00 0.00 0.00 0.00 0.00 0.00 0.00 0.00 0.00 0.00 0.00 0.00 0.00 0.00 0.00 0.00 0.00 0.01 0.01 0.02 0.02 0.02 0.01 0.01 0.02 0.01 0.01 0.02 0.03 0.02 0.02 0.03 0.03 0.04 0.04 0.05 0.05 0.05 0.05 0.05 0.05 0.05 0.04 0.04 0.04 0.03 0.04
0.00 0.00 0.00 0.00 0.00 0.00 0.00 0.00 0.00 0.00 0.00 0.00 0.00 0.00 0.00 0.00 0.00 0.00 0.00 0.01 0.01 0.01 0.02 0.02 0.01 0.01 0.02 0.02 0.02 0.02 0.03 0.03 0.04 0.04 0.04 0.04 0.05 0.06 0.05 0.06 0.05 0.06 0.06 0.05 0.05 0.05 0.04 0.03 0.03
0.00 0.00 0.00 0.00 0.00 0.00 0.00 0.00 0.00 0.00 0.00 0.00 0.00 0.00 0.00 0.00 0.00 0.00 0.00 0.01 0.01 0.01 0.01 0.02 0.02 0.01 0.01 0.01 0.01 0.02 0.04 0.04 0.04 0.05 0.05 0.05 0.05 0.04 0.05 0.06 0.05 0.05 0.05 0.06 0.07 0.06 0.05 0.06 0.05
0.00 0.00 0.00 0.00 0.00 0.01 0.00 0.01 0.00 0.00 0.00 0.00 0.00 0.00 0.00 0.00 0.00 0.00 0.00 0.01 0.01 0.01 0.02 0.01 0.01 0.02 0.02 0.02 0.02 0.02 0.03 0.04 0.04 0.04 0.05 0.06 0.05 0.06 0.06 0.06 0.06 0.06 0.05 0.06 0.07 0.06 0.07 0.08 0.08
0.00 0.00 0.00 0.00 0.00 0.00 0.00 0.00 0.00 0.00 0.00 0.00 0.00 0.00 0.00 0.00 0.00 0.00 0.01 0.01 0.01 0.01 0.01 0.01 0.02 0.02 0.03 0.04 0.04 0.03 0.03 0.03 0.03 0.03 0.04 0.05 0.06 0.06 0.07 0.07 0.08 0.07 0.07 0.08 0.07 0.08 0.07 0.08 0.10
0.00 0.00 0.00 0.00 0.00 0.01 0.00 0.00 0.00 0.00 0.00 0.00 0.00 0.00 0.00 0.00 0.00 0.00 0.00 0.01 0.01 0.01 0.01 0.02 0.04 0.03 0.03 0.03 0.02 0.02 0.01 0.02 0.03 0.03 0.04 0.04 0.05 0.06 0.08 0.08 0.09 0.09 0.08 0.08 0.08 0.07 0.07 0.07 0.09
0.00 0.00 0.01 0.01 0.01 0.01 0.00 0.00 0.01 0.00 0.00 0.01 0.00 0.00 0.00 0.00 0.00 0.00 0.00 0.01 0.01 0.01 0.01 0.01 0.01 0.01 0.01 0.01 0.01 0.01 0.02 0.02 0.02 0.03 0.03 0.04 0.04 0.04 0.07 0.08 0.10 0.10 0.09 0.09 0.07 0.06 0.06 0.07 0.07
0.00 0.00 0.00 0.01 0.01 0.00 0.00 0.00 0.00 0.00 0.00 0.01 0.01 0.00 0.00 0.00 0.00 0.00 0.00 0.01 0.01 0.02 0.02 0.02 0.01 0.01 0.01 0.01 0.01 0.01 0.02 0.02 0.02 0.03 0.03 0.06 0.07 0.05 0.05 0.05 0.06 0.08 0.10 0.10 0.12 0.10 0.08 0.07 0.06
0.00 0.00 0.00 0.00 0.00 0.00 0.00 0.00 0.00 0.00 0.00 0.00 0.01 0.00 0.00 0.00 0.00 0.00 0.00 0.00 0.00 0.01 0.02 0.01 0.01 0.01 0.01 0.01 0.01 0.01 0.01 0.01 0.01 0.02 0.02 0.02 0.03 0.05 0.06 0.07 0.06 0.06 0.05 0.06 0.07 0.10 0.12 0.10 0.08
0.00 0.00 0.00 0.00 0.01 0.01 0.01 0.00 0.00 0.00 0.01 0.00 0.00 0.00 0.00 0.00 0.00 0.00 0.00 0.00 0.00 0.01 0.01 0.01 0.01 0.01 0.01 0.01 0.01 0.02 0.02 0.01 0.01 0.01 0.01 0.01 0.01 0.03 0.03 0.04 0.03 0.03 0.04 0.03 0.04 0.04 0.05 0.07 0.08
0.00 0.00 0.00 0.00 0.00 0.01 0.01 0.00 0.00 0.00 0.00 0.00 0.00 0.00 0.00 0.00 0.00 0.00 0.00 0.00 0.00 0.00 0.01 0.01 0.01 0.01 0.01 0.01 0.02 0.02 0.02 0.02 0.02 0.03 0.02 0.02 0.01 0.02 0.02 0.02 0.02 0.03 0.03 0.04 0.04 0.04 0.03 0.03 0.03
0.00 0.00 0.00 0.00 0.00 0.00 0.01 0.01 0.00 0.00 0.00 0.00 0.00 0.00 0.00 0.01 0.01 0.00 0.00 0.00 0.00 0.00 0.00 0.01 0.01 0.01 0.02 0.01 0.01 0.01 0.02 0.02 0.03 0.03 0.03 0.03 0.02 0.02 0.02 0.02 0.02 0.02 0.02 0.03 0.04 0.03 0.03 0.03 0.03
MSLP
1010.47 1010.77 1011.08 1011.30 1011.37 1011.28 1011.01 1010.62 1010.19 1009.80 1009.56 1009.52 1009.69 1010.05 1010.53 1011.02 1011.44 1011.69 1011.77 1011.68 1011.48 1011.27 1011.12 1011.10 1011.24 1011.50 1011.85 1012.20 1012.51 1012.74 1012.88 1012.98 1013.09 1013.25 1013.51 1013.86 1014.27 1014.69 1015.05 1015.31 1015.43 1015.45 1015.41 1015.36 1015.37 1015.47 1015.65 1015.90 1016.17
1010.45 1010.81 1011.11 1011.30 1011.31 1011.14 1010.80 1010.37 1009.92 1009.55 1009.35 1009.35 1009.57 1009.95 1010.43 1010.91 1011.30 1011.54 1011.61 1011.55 1011.42 1011.30 1011.26 1011.35 1011.59 1011.93 1012.33 1012.71 1013.04 1013.27 1013.41 1013.51 1013.62 1013.77 1014.01 1014.32 1014.67 1015.02 1015.31 1015.49 1015.58 1015.58 1015.56 1015.55 1015.60 1015.75 1015.97 1016.23 1016.49
1010.51 1010.89 1011.17 1011.29 1011.23 1010.99 1010.60 1010.14 1009.70 1009.37 1009.21 1009.27 1009.52 1009.92 1010.38 1010.83 1011.18 1011.39 1011.45 1011.42 1011.35 1011.32 1011.38 1011.58 1011.91 1012.34 1012.79 1013.21 1013.56 1013.80 1013.96 1014.07 1014.17 1014.32 1014.52 1014.79 1015.08 1015.35 1015.57 1015.70 1015.75 1015.75 1015.75 1015.79 1015.90 1016.09 1016.35 1016.61 1016.83
1010.63 1010.98 1011.19 1011.23 1011.09 1010.77 1010.34 1009.87 1009.46 1009.19 1009.11 1009.23 1009.52 1009.93 1010.38 1010.78 1011.09 1011.26 1011.32 1011.31 1011.29 1011.34 1011.50 1011.79 1012.21 1012.70 1013.20 1013.66 1014.02 1014.29 1014.46 1014.58 1014.69 1014.83 1015.02 1015.24 1015.48 1015.69 1015.85 1015.94 1015.97 1015.99 1016.02 1016.11 1016.27 1016.50 1016.76 1017.01 1017.18
1010.76 1011.03 1011.14 1011.07 1010.82 1010.43 1009.98 1009.53 1009.19 1009.00 1009.01 1009.20 1009.55 1009.98 1010.41 1010.78 1011.04 1011.18 1011.23 1011.23 1011.26 1011.37 1011.61 1011.98 1012.46 1012.99 1013.52 1014.00 1014.38 1014.65 1014.84 1014.98 1015.11 1015.26 1015.44 1015.64 1015.84 1016.01 1016.13 1016.20 1016.23 1016.26 1016.33 1016.47 1016.67 1016.92 1017.18 1017.39 1017.50
1010.86 1011.01 1010.98 1010.77 1010.41 1009.96 1009.50 1009.10 1008.83 1008.76 1008.88 1009.17 1009.58 1010.04 1010.47 1010.82 1011.05 1011.17 1011.20 1011.22 1011.28 1011.44 1011.72 1012.13 1012.64 1013.19 1013.72 1014.19 1014.57 1014.85 1015.06 1015.22 1015.38 1015.55 1015.74 1015.94 1016.12 1016.28 1016.38 1016.44 1016.48 1016.53 1016.63 1016.80 1017.03 1017.29 1017.53 1017.70 1017.74
1010.89 1010.88 1010.69 1010.34 1009.87 1009.37 1008.92 1008.58 1008.42 1008.47 1008.72 1009.12 1009.61 1010.11 1010.56 1010.90 1011.12 1011.22 1011.26 1011.28 1011.36 1011.54 1011.84 1012.26 1012.76 1013.29 1013.80 1014.24 1014.60 1014.88 1015.10 1015.28 1015.47 1015.67 1015.89 1016.11 1016.30 1016.45 1016.56 1016.62 1016.67 1016.74 1016.86 1017.04 1017.27 1017.52 1017.73 1017.86 1017.84
1010.84 1010.67 1010.31 1009.81 1009.26 1008.72 1008.29 1008.03 1007.99 1008.17 1008.54 1009.05 1009.63 1010.19 1010.66 1011.01 1011.23 1011.34 1011.38 1011.42 1011.51 1011.69 1011.99 1012.38 1012.84 1013.32 1013.78 1014.17 1014.50 1014.76 1014.98 1015.19 1015.41 1015.65 1015.90 1016.14 1016.35 1016.51 1016.62 1016.69 1016.74 1016.82 1016.94 1017.12 1017.34 1017.57 1017.75 1017.83 1017.78
1010.73 1010.39 1009.88 1009.26 1008.63 1008.08 1007.69 1007.51 1007.58 1007.88 1008.37 1008.98 1009.63 1010.24 1010.76 1011.13 1011.37 1011.49 1011.55 1011.61 1011.71 1011.89 1012.17 1012.52 1012.93 1013.34 1013.72 1014.06 1014.34 1014.57 1014.79 1015.01 1015.25 1015.52 1015.80 1016.06 1016.29 1016.46 1016.58 1016.64 1016.69 1016.76 1016.87 1017.03 1017.22 1017.42 1017.57 1017.63 1017.56
1010.56 1010.09 1009.46 1008.75 1008.08 1007.53 1007.18 1007.08 1007.24 1007.64 1008.22 1008.91 1009.61 1010.26 1010.81 1011.21 1011.48 1011.64 1011.74 1011.82 1011.94 1012.13 1012.38 1012.69 1013.03 1013.38 1013.69 1013.96 1014.19 1014.39 1014.59 1014.81 1015.06 1015.35 1015.64 1015.92 1016.15 1016.33 1016.44 1016.49 1016.53 1016.57 1016.65 1016.78 1016.94 1017.11 1017.23 1017.27 1017.21
1010.37 1009.80 1009.09 1008.34 1007.65 1007.12 1006.82 1006.78 1007.01 1007.47 1008.09 1008.81 1009.54 1010.21 1010.78 1011.21 1011.52 1011.73 1011.88 1012.01 1012.16 1012.36 1012.60 1012.88 1013.18 1013.46 1013.72 1013.93 1014.11 1014.28 1014.46 1014.67 1014.92 1015.19 1015.48 1015.76 1015.98 1016.15 1016.24 1016.28 1016.30 1016.31 1016.36 1016.45 1016.57 1016.70 1016.80 1016.83 1016.78
1010.17 1009.55 1008.82 1008.06 1007.40 1006.90 1006.64 1006.64 1006.89 1007.36 1007.98 1008.68 1009.39 1010.06 1010.63 1011.09 1011.44 1011.71 1011.92 1012.11 1012.31 1012.54 1012.80 1013.07 1013.34 1013.59 1013.81 1013.99 1014.14 1014.28 1014.43 1014.62 1014.84 1015.09 1015.36 1015.61 1015.82 1015.97 1016.04 1016.06 1016.05 1016.04 1016.05 1016.10 1016.18 1016.28 1016.35 1016.38 1016.33
1009.97 1009.36 1008.64 1007.93 1007.31 1006.86 1006.63 1006.64 1006.87 1007.30 1007.87 1008.51 1009.17 1009.79 1010.35 1010.83 1011.22 1011.54 1011.82 1012.09 1012.35 1012.62 1012.91 1013.21 1013.48 1013.73 1013.94 1014.10 1014.24 1014.36 1014.49 1014.65 1014.84 1015.06 1015.29 1015.50 1015.68 1015.80 1015.86 1015.87 1015.84 1015.80 1015.78 1015.80 1015.85 1015.91 1015.96 1015.97 1015.93
1009.78 1009.21 1008.57 1007.93 1007.39 1006.99 1006.78 1006.77 1006.95 1007.30 1007.76 1008.30 1008.86 1009.42 1009.95 1010.42 1010.85 1011.23 1011.57 1011.91 1012.24 1012.57 1012.90 1013.23 1013.54 1013.81 1014.03 1014.21 1014.35 1014.48 1014.59 1014.72 1014.87 1015.05 1015.23 1015.41 1015.56 1015.66 1015.71 1015.71 1015.67 1015.63 1015.59 1015.58 1015.59 1015.62 1015.65 1015.64 1015.58
1009.59 1009.12 1008.57 1008.05 1007.59 1007.25 1007.06 1007.01 1007.11 1007.34 1007.66 1008.06 1008.51 1008.98 1009.45 1009.92 1010.36 1010.78 1011.19 1011.58 1011.97 1012.36 1012.74 1013.11 1013.45 1013.77 1014.03 1014.25 1014.42 1014.55 1014.66 1014.77 1014.89 1015.02 1015.16 1015.30 1015.42 1015.51 1015.56 1015.56 1015.54 1015.50 1015.45 1015.43 1015.41 1015.41 1015.40 1015.36 1015.28
1009.43 1009.06 1008.65 1008.25 1007.90 1007.62 1007.43 1007.33 1007.33 1007.41 1007.58 1007.83 1008.14 1008.51 1008.92 1009.35 1009.80 1010.25 1010.69 1011.13 1011.56 1011.98 1012.40 1012.81 1013.21 1013.57 1013.89 1014.15 1014.36 1014.52 1014.64 1014.74 1014.83 1014.93 1015.03 1015.14 1015.24 1015.32 1015.38 1015.40 1015.40 1015.37 1015.33 1015.29 1015.26 1015.23 1015.18 1015.11 1015.00
1009.29 1009.05 1008.78 1008.52 1008.28 1008.06 1007.87 1007.71 1007.59 1007.53 1007.53 1007.61 1007.78 1008.04 1008.38 1008.77 1009.21 1009.67 1010.13 1010.58 1011.03 1011.48 1011.92 1012.36 1012.79 1013.20 1013.58 1013.90 1014.16 1014.36 1014.50 1014.60 1014.67 1014.74 1014.81 1014.89 1014.98 1015.06 1015.13 1015.18 1015.20 1015.20 1015.17 1015.13 1015.08 1015.02 1014.94 1014.84 1014.70
1009.18 1009.08 1008.97 1008.85 1008.72 1008.55 1008.36 1008.13 1007.89 1007.67 1007.50 1007.42 1007.44 1007.59 1007.84 1008.19 1008.61 1009.05 1009.51 1009.97 1010.41 1010.86 1011.31 1011.77 1012.24 1012.69 1013.12 1013.50 1013.82 1014.06 1014.23 1014.34 1014.41 1014.46 1014.50 1014.56 1014.64 1014.72 1014.81 1014.88 1014.93 1014.94 1014.93 1014.88 1014.82 1014.74 1014.64 1014.52 1014.36
1009.10 1009.15 1009.19 1009.22 1009.18 1009.07 1008.86 1008.55 1008.19 1007.80 1007.46 1007.21 1007.09 1007.12 1007.30 1007.59 1007.97 1008.40 1008.84 1009.29 1009.73 1010.17 1010.62 1011.09 1011.58 1012.08 1012.56 1013.00 1013.38 1013.67 1013.88 1014.00 1014.07 1014.10 1014.12 1014.17 1014.23 1014.31 1014.41 1014.50 1014.56 1014.59 1014.59 1014.55 1014.48 1014.38 1014.27 1014.14 1013.98
1009.03 1009.23 1009.43 1009.59 1009.65 1009.57 1009.33 1008.94 1008.44 1007.89 1007.37 1006.95 1006.68 1006.60 1006.69 1006.92 1007.27 1007.67 1008.10 1008.54 1008.97 1009.40 1009.85 1010.34 1010.86 1011.40 1011.94 1012.45 1012.88 1013.23 1013.47 1013.61 1013.68 1013.70 1013.71 1013.73 1013.78 1013.86 1013.95 1014.05 1014.13 1014.17 1014.18 1014.14 1014.06 1013.96 1013.85 1013.72 1013.57
1008.95 1009.31 1009.66 1009.95 1010.08 1010.02 1009.74 1009.24 1008.60 1007.87 1007.17 1006.58 1006.17 1005.96 1005.96 1006.13 1006.44 1006.83 1007.25 1007.69 1008.12 1008.56 1009.03 1009.55 1010.11 1010.70 1011.30 1011.86 1012.36 1012.76 1013.04 1013.20 1013.28 1013.29 1013.28 1013.29 1013.32 1013.39 1013.48 1013.58 1013.67 1013.72 1013.73 1013.69 1013.62 1013.53 1013.42 1013.31 1013.19
1008.82 1009.33 1009.83 1010.23 1010.43 1010.37 1010.02 1009.42 1008.63 1007.73 1006.85 1006.08 1005.51 1005.18 1005.09 1005.20 1005.47 1005.85 1006.27 1006.71 1007.17 1007.64 1008.15 1008.71 1009.32 1009.97 1010.63 1011.26 1011.82 1012.27 1012.59 1012.78 1012.87 1012.88 1012.87 1012.86 1012.88 1012.94 1013.03 1013.14 1013.23 1013.29 1013.31 1013.28 1013.22 1013.13 1013.04 1012.95 1012.86
1008.62 1009.28 1009.91 1010.40 1010.64 1010.57 1010.17 1009.46 1008.51 1007.45 1006.39 1005.46 1004.74 1004.28 1004.09 1004.14 1004.37 1004.73 1005.16 1005.63 1006.12 1006.64 1007.20 1007.81 1008.49 1009.21 1009.93 1010.63 1011.25 1011.75 1012.11 1012.33 1012.43 1012.46 1012.45 1012.44 1012.46 1012.52 1012.62 1012.74 1012.85 1012.93 1012.96 1012.94 1012.89 1012.82 1012.74 1012.67 1012.61
1008.32 1009.12 1009.86 1010.42 1010.69 1010.61 1010.15 1009.34 1008.27 1007.05 1005.84 1004.76 1003.90 1003.32 1003.03 1003.01 1003.21 1003.55 1003.98 1004.47 1005.00 1005.57 1006.19 1006.87 1007.60 1008.39 1009.18 1009.93 1010.60 1011.16 1011.56 1011.82 1011.96 1012.01 1012.02 1012.03 1012.07 1012.16 1012.28 1012.42 1012.55 1012.66 1012.71 1012.71 1012.68 1012.61 1012.54 1012.48 1012.44
1007.93 1008.83 1009.66 1010.28 1010.57 1010.48 1009.97 1009.09 1007.92 1006.60 1005.27 1004.07 1003.09 1002.41 1002.03 1001.94 1002.08 1002.39 1002.81 1003.31 1003.87 1004.47 1005.14 1005.87 1006.66 1007.50 1008.34 1009.15 1009.87 1010.47 1010.93 1011.24 1011.42 1011.52 1011.57 1011.63 1011.71 1011.84 1012.00 1012.19 1012.36 1012.50 1012.58 1012.60 1012.58 1012.52 1012.44 1012.38 1012.32
1007.46 1008.44 1009.31 1009.96 1010.27 1010.17 1009.64 1008.72 1007.51 1006.13 1004.74 1003.47 1002.42 1001.65 1001.20 1001.03 1001.10 1001.36 1001.76 1002.24 1002.80 1003.42 1004.10 1004.86 1005.69 1006.56 1007.44 1008.29 1009.06 1009.71 1010.22 1010.59 1010.84 1011.00 1011.12 1011.24 1011.39 1011.58 1011.81 1012.05 1012.27 1012.45 1012.56 1012.60 1012.58 1012.51 1012.41 1012.32 1012.23
1006.94 1007.93 1008.82 1009.47 1009.78 1009.68 1009.16 1008.26 1007.06 1005.69 1004.30 1003.01 1001.93 1001.12 1000.61 1000.37 1000.38 1000.57 1000.91 1001.35 1001.87 1002.47 1003.14 1003.90 1004.73 1005.62 1006.52 1007.39 1008.20 1008.90 1009.48 1009.92 1010.25 1010.50 1010.71 1010.92 1011.15 1011.42 1011.71 1012.01 1012.29 1012.50 1012.64 1012.69 1012.66 1012.57 1012.43 1012.28 1012.13
1006.38 1007.34 1008.19 1008.82 1009.11 1009.03 1008.54 1007.69 1006.57 1005.27 1003.95 1002.71 1001.66 1000.85 1000.30 1000.00 999.94 1000.06 1000.32 1000.68 1001.14 1001.69 1002.33 1003.05 1003.86 1004.74 1005.64 1006.54 1007.37 1008.13 1008.77 1009.30 1009.72 1010.07 1010.38 1010.69 1011.02 1011.36 1011.73 1012.08 1012.40 1012.65 1012.80 1012.85 1012.80 1012.66 1012.46 1012.23 1011.99
1005.79 1006.67 1007.43 1008.00 1008.27 1008.19 1007.76 1007.01 1006.00 1004.84 1003.65 1002.52 1001.54 1000.77 1000.22 999.90 999.78 999.82 1000.00 1000.28 1000.66 1001.14 1001.71 1002.39 1003.16 1004.01 1004.91 1005.81 1006.68 1007.48 1008.20 1008.81 1009.34 1009.79 1010.21 1010.62 1011.03 1011.45 1011.87 1012.26 1012.61 1012.87 1013.02 1013.04 1012.95 1012.76 1012.49 1012.17 1011.82
1005.19 1005.92 1006.57 1007.04 1007.27 1007.20 1006.83 1006.18 1005.32 1004.33 1003.30 1002.32 1001.46 1000.77 1000.26 999.94 999.79 999.78 999.89 1000.10 1000.41 1000.82 1001.33 1001.95 1002.69 1003.50 1004.39 1005.29 1006.19 1007.05 1007.83 1008.53 1009.15 1009.71 1010.23 1010.72 1011.19 1011.66 1012.12 1012.53 1012.88 1013.13 1013.25 1013.25 1013.12 1012.86 1012.51 1012.09 1011.65
Thickness
5810 5813 5813 5806 5797 5796 5789 5796 5804 5805 5806 5813 5815 5811 5805 5800 5794 5786 5806 5814 5814 5813 5809 5803 5799 5797 5795 5793 5792 5790 5788 5787 5785 5784 5783 5781 5780 5779 5778 5777 5776 5776 5775 5775 5774 5772 5771 5771 5770
5817 5816 5810 5804 5797 5787 5788 5801 5803 5805 5811 5816 5815 5812 5807 5803 5808 5807 5810 5812 5814 5813 5810 5804 5798 5796 5794 5792 5790 5789 5787 5786 5785 5783 5782 5780 5779 5778 5777 5776 5776 5775 5774 5773 5773 5772 5770 5770 5769
5819 5817 5808 5804 5797 5791 5791 5805 5806 5811 5817 5815 5811 5812 5807 5802 5808 5810 5813 5813 5813 5812 5809 5803 5797 5795 5793 5791 5789 5787 5786 5785 5784 5782 5781 5780 5778 5777 5776 5776 5775 5774 5773 5772 5771 5770 5769 5769 5768
5819 5814 5810 5801 5796 5803 5805 5811 5814 5811 5814 5817 5813 5806 5808 5810 5812 5814 5814 5814 5812 5811 5809 5802 5796 5794 5792 5789 5788 5786 5785 5784 5782 5781 5780 5779 5778 5776 5775 5775 5774 5773 5772 5772 5771 5770 5769 5768 5767
5821 5812 5803 5799 5801 5809 5817 5819 5818 5812 5811 5814 5813 5803 5802 5811 5816 5816 5814 5813 5811 5810 5807 5802 5795 5793 5790 5788 5786 5785 5784 5782 5782 5780 5779 5778 5777 5776 5775 5774 5773 5772 5771 5771 5770 5769 5768 5767 5767
5815 5814 5800 5795 5801 5810 5818 5823 5820 5815 5814 5814 5812 5805 5802 5811 5813 5813 5814 5811 5812 5809 5806 5801 5794 5792 5789 5787 5786 5784 5783 5782 5781 5780 5779 5777 5776 5775 5774 5773 5772 5771 5770 5770 5769 5767 5767 5766 5766
5812 5809 5801 5802 5802 5806 5814 5824 5819 5815 5811 5813 5817 5806 5803 5808 5812 5813 5812 5811 5810 5809 5806 5802 5798 5793 5789 5786 5785 5783 5782 5781 5780 5779 5778 5777 5775 5774 5773 5773 5771 5770 5769 5769 5768 5767 5766 5766 5765
5822 5814 5807 5807 5803 5804 5818 5823 5822 5817 5812 5821 5821 5806 5801 5809 5814 5813 5811 5809 5808 5806 5805 5802 5799 5796 5793 5790 5785 5783 5781 5780 5780 5779 5778 5777 5776 5775 5774 5773 5771 5770 5769 5768 5767 5766 5766 5765 5765
5824 5811 5803 5807 5806 5809 5821 5819 5822 5826 5819 5817 5818 5816 5815 5816 5814 5809 5805 5804 5802 5802 5802 5801 5800 5797 5795 5792 5788 5784 5782 5781 5780 5779 5777 5777 5779 5778 5776 5774 5772 5770 5769 5768 5767 5766 5766 5765 5765
5819 5806 5807 5817 5819 5817 5819 5819 5821 5819 5813 5811 5813 5815 5816 5814 5810 5805 5802 5800 5798 5798 5800 5800 5799 5797 5796 5793 5789 5787 5786 5783 5782 5781 5780 5780 5779 5778 5777 5774 5772 5770 5769 5768 5767 5767 5766 5767 5768
5819 5811 5818 5823 5826 5824 5820 5821 5825 5817 5808 5811 5810 5810 5812 5811 5808 5805 5803 5802 5801 5801 5799 5799 5798 5795 5794 5792 5790 5788 5787 5785 5783 5781 5780 5779 5779 5779 5778 5776 5774 5772 5771 5771 5770 5769 5770 5770 5770
5819 5821 5824 5825 5829 5825 5822 5822 5820 5816 5815 5823 5822 5818 5814 5810 5807 5806 5804 5803 5802 5800 5799 5798 5796 5793 5792 5791 5790 5788 5788 5786 5785 5782 5780 5780 5779 5778 5777 5776 5776 5774 5774 5772 5772 5771 5771 5770 5770
5819 5821 5827 5830 5829 5828 5825 5821 5819 5817 5824 5826 5823 5818 5814 5812 5810 5809 5808 5805 5802 5799 5798 5798 5796 5793 5790 5789 5788 5788 5787 5786 5784 5782 5781 5779 5779 5778 5777 5775 5774 5774 5773 5773 5771 5771 5770 5770 5770
5824 5825 5826 5829 5829 5829 5822 5821 5819 5817 5824 5822 5818 5816 5816 5814 5811 5810 5807 5804 5802 5800 5799 5798 5795 5793 5790 5788 5787 5787 5787 5784 5784 5782 5781 5778 5778 5777 5776 5775 5773 5774 5773 5772 5771 5770 5769 5769 5769
5827 5819 5822 5827 5827 5828 5824 5812 5815 5822 5823 5818 5816 5816 5815 5814 5813 5810 5808 5805 5805 5802 5800 5798 5796 5794 5790 5788 5787 5787 5786 5785 5783 5782 5780 5778 5777 5776 5775 5775 5774 5773 5772 5770 5770 5769 5769 5769 5769
5823 5817 5812 5822 5826 5827 5817 5802 5818 5825 5821 5816 5816 5815 5813 5813 5813 5812 5810 5807 5807 5804 5801 5799 5798 5794 5791 5788 5786 5787 5786 5784 5783 5782 5780 5777 5776 5775 5774 5774 5774 5772 5772 5771 5770 5769 5768 5768 5767
5815 5809 5808 5816 5825 5825 5818 5808 5819 5825 5821 5816 5816 5815 5813 5812 5812 5812 5811 5809 5807 5804 5801 5798 5796 5794 5792 5789 5786 5785 5784 5783 5782 5781 5779 5778 5776 5775 5774 5774 5773 5772 5771 5771 5770 5769 5767 5765 5765
5806 5809 5809 5811 5822 5821 5814 5813 5820 5824 5822 5819 5818 5816 5813 5812 5812 5813 5812 5811 5808 5804 5801 5797 5795 5793 5791 5789 5786 5784 5783 5783 5782 5780 5778 5777 5776 5774 5774 5773 5772 5771 5770 5769 5767 5765 5764 5764 5763
5815 5810 5807 5813 5823 5818 5812 5813 5819 5823 5821 5819 5818 5816 5814 5813 5816 5815 5813 5810 5807 5803 5799 5797 5794 5792 5789 5787 5785 5782 5782 5782 5782 5781 5778 5776 5775 5774 5772 5773 5771 5769 5769 5767 5767 5765 5763 5763 5763
5812 5806 5808 5813 5820 5816 5812 5813 5821 5822 5821 5822 5820 5818 5817 5815 5814 5813 5812 5809 5807 5803 5800 5797 5794 5792 5790 5788 5785 5784 5783 5782 5781 5781 5778 5776 5775 5773 5773 5770 5770 5769 5766 5765 5764 5762 5762 5763 5762
5810 5808 5809 5808 5813 5817 5810 5807 5814 5821 5824 5824 5823 5823 5821 5817 5814 5812 5810 5809 5807 5804 5801 5799 5795 5793 5790 5788 5786 5784 5781 5780 5779 5777 5776 5775 5773 5772 5771 5770 5769 5767 5767 5765 5763 5762 5760 5759 5760
5806 5820 5815 5809 5803 5805 5807 5793 5811 5818 5817 5819 5821 5822 5822 5821 5819 5816 5812 5809 5808 5807 5804 5800 5796 5792 5790 5787 5785 5781 5778 5776 5775 5775 5775 5773 5772 5771 5769 5768 5767 5765 5766 5764 5763 5763 5761 5758 5757
5815 5822 5816 5810 5805 5802 5806 5797 5810 5819 5811 5816 5821 5822 5823 5823 5821 5817 5815 5813 5811 5810 5806 5801 5796 5792 5789 5786 5783 5780 5778 5777 5777 5775 5772 5771 5770 5769 5768 5766 5765 5763 5763 5762 5761 5761 5760 5759 5756
5819 5814 5810 5810 5807 5786 5799 5794 5799 5816 5814 5818 5822 5823 5823 5823 5823 5820 5818 5815 5812 5810 5807 5802 5795 5791 5789 5785 5783 5779 5776 5774 5772 5770 5769 5768 5768 5767 5766 5765 5763 5762 5762 5760 5759 5759 5758 5756 5755
5812 5800 5787 5782 5783 5787 5804 5795 5803 5820 5825 5824 5822 5822 5822 5822 5821 5818 5815 5813 5810 5807 5804 5801 5795 5790 5788 5785 5782 5779 5776 5772 5769 5768 5767 5766 5766 5765 5762 5763 5760 5760 5758 5757 5757 5755 5754 5753 5751
5807 5805 5784 5771 5777 5793 5797 5794 5812 5826 5828 5828 5827 5824 5822 5821 5820 5817 5816 5812 5809 5807 5804 5800 5794 5790 5787 5784 5781 5779 5776 5774 5772 5769 5767 5765 5764 5764 5761 5759 5758 5756 5755 5755 5754 5753 5751 5750 5749
5803 5804 5813 5796 5791 5784 5796 5804 5814 5822 5820 5821 5821 5820 5818 5818 5817 5816 5815 5813 5809 5806 5803 5799 5794 5789 5786 5783 5780 5777 5775 5772 5770 5768 5766 5765 5762 5762 5758 5757 5755 5753 5752 5751 5751 5750 5748 5747 5747
5815 5811 5801 5789 5768 5768 5785 5793 5801 5807 5810 5815 5815 5815 5816 5817 5816 5815 5813 5811 5809 5806 5802 5799 5794 5789 5786 5783 5780 5778 5774 5771 5768 5766 5763 5760 5759 5757 5755 5753 5751 5750 5749 5748 5747 5746 5745 5743 5742
5800 5799 5798 5795 5788 5773 5770 5789 5818 5813 5814 5813 5814 5815 5815 5814 5814 5813 5812 5810 5808 5806 5802 5797 5792 5788 5785 5782 5779 5775 5772 5769 5766 5763 5760 5758 5756 5753 5751 5749 5748 5746 5745 5744 5743 5743 5742 5740 5739
5806 5802 5798 5782 5776 5782 5779 5790 5823 5817 5818 5816 5814 5814 5814 5812 5813 5812 5810 5807 5804 5802 5799 5794 5790 5786 5782 5779 5776 5773 5769 5766 5763 5759 5757 5755 5753 5751 5749 5747 5744 5743 5742 5741 5739 5738 5738 5737 5735